sat.trackr.live / text

‹ back to catalog

ALOS-4 (DAICHI-4)

NORAD 60182 · 2024-123A

PAYLOAD ACTIVE UNKNOWN

§ Identity

Operator
Country
JPN
Launch date
2024-07-01
Launch site
TANSC
Launch vehicle
Mass (kg)
RCS (m²)

Purposes: earth_obs

External: N2YO · Heavens-Above · Gunter

§ Orbital elements

Epoch: 2026-05-25T05:32:35.364768Z

Period
97.33 min
Inclination
97.9231°
Eccentricity
0.0001618
Mean motion
14.79474323 rev/d
Perigee alt
629.8 km
Apogee alt
632.1 km
Semi-major
7,009.1 km
B*
1.7508e-4
RAAN
242.7277°
Arg perigee
96.6745°
Mean anomaly
263.4651°
Rev number
10,248

§ Raw data

ALOS-4 (DAICHI-4)1 60182U 24123A   26145.23096487  .00001256  00000+0  17508-3 0  99932 60182  97.9231 242.7277 0001618  96.6745 263.4651 14.79474323102480

JSON: /api/v1/satellites/60182 · /tle

For live sub-satellite position, see the globe view (requires WebGL).

§ Visibility from observer

Set your observer location to see the next 7 days of passes ≥ 10°. The values pass through the URL so the page stays shareable.

No JS? Fill the form by hand. The geolocation button needs JavaScript.

§ Radio — SatNOGS DB

ModeDescriptionDownlinkUplink
BPSK S-band telemetry 2.220 GHz

1 transmitter · refreshed weekly from db.satnogs.org